When you browse on this site, cookies collect data to enhance your experience and personalize the content and advertising you see.
Visit our Privacy Policy to learn more. By continuing to use the site, you agree to this use of cookies and data.
  • en Suisse
  • Liste des pays
  • À 7 jours
  • Température de l'eau
  • Carte satellitaire
  • Carte météo
  • Widgets météo
  • user-avatar
    Se connecter

    Météo par heure à Peredelsk

    Ce jour, 16 Janvier, Mercredi

    Heure Température Précipitation Vent Pression Humidité
    00:00 -5°C° 0.2 mm 3 m/s 733 mmHg 87%
    01:00 -5°C° 0.2 mm 3 m/s 732 mmHg 91%
    02:00 -4°C° 0 mm 2 m/s 731 mmHg 96%
    03:00 -4°C° 0.5 mm 2 m/s 731 mmHg 96%
    04:00 -4°C° 0.5 mm 2 m/s 732 mmHg 96%
    05:00 -2°C° 0.5 mm 1 m/s 732 mmHg 96%
    06:00 -5°C° 0 mm 2 m/s 733 mmHg 96%
    07:00 -5°C° 0 mm 2 m/s 734 mmHg 95%
    08:00 -7°C° 0 mm 3 m/s 735 mmHg 95%
    09:00 -7°C° 0 mm 3 m/s 736 mmHg 93%
    10:00 -6°C° 0 mm 3 m/s 737 mmHg 91%
    11:00 -5°C° 0 mm 3 m/s 738 mmHg 90%
    12:00 -5°C° 0 mm 3 m/s 738 mmHg 89%
    13:00 -4°C° 0 mm 3 m/s 739 mmHg 88%
    14:00 -2°C° 0 mm 3 m/s 739 mmHg 87%
    15:00 -3°C° 0 mm 2 m/s 739 mmHg 89%
    16:00 -4°C° 0 mm 2 m/s 739 mmHg 91%
    17:00 -4°C° 0 mm 2 m/s 739 mmHg 93%
    18:00 -5°C° 0.1 mm 3 m/s 739 mmHg 93%
    19:00 -4°C° 0.1 mm 3 m/s 739 mmHg 93%
    20:00 -2°C° 0.1 mm 3 m/s 739 mmHg 93%
    21:00 -2°C° 0.1 mm 4 m/s 739 mmHg 95%
    22:00 -2°C° 0.1 mm 4 m/s 739 mmHg 96%
    23:00 -1°C° 0.1 mm 4 m/s 739 mmHg 97%

    Demain, 17 Janvier, Jeudi

    Heure Température Précipitation Vent Pression Humidité
    00:00 -1°C° 0 mm 4 m/s 739 mmHg 97%
    01:00 -1°C° 0 mm 4 m/s 738 mmHg 96%
    02:00 -1°C° 0 mm 5 m/s 738 mmHg 96%
    03:00 -1°C° 0 mm 5 m/s 738 mmHg 96%
    04:00 -1°C° 0 mm 5 m/s 737 mmHg 95%
    05:00 -1°C° 0 mm 5 m/s 737 mmHg 94%
    06:00 -1°C° 0 mm 5 m/s 737 mmHg 93%
    07:00 -1°C° 0 mm 5 m/s 736 mmHg 91%
    08:00 -3°C° 0 mm 6 m/s 735 mmHg 90%
    09:00 -2°C° 0 mm 6 m/s 735 mmHg 87%
    10:00 -2°C° 0 mm 7 m/s 735 mmHg 85%
    11:00 -2°C° 0 mm 7 m/s 735 mmHg 82%
    12:00 -1°C° 0 mm 7 m/s 734 mmHg 82%
    13:00 -1°C° 0 mm 7 m/s 734 mmHg 82%
    14:00 -1°C° 0 mm 7 m/s 734 mmHg 82%
    15:00 -1°C° 0 mm 7 m/s 734 mmHg 84%
    16:00 -1°C° 0 mm 6 m/s 735 mmHg 86%
    17:00 -1°C° 0 mm 6 m/s 735 mmHg 89%
    18:00 -1°C° 0 mm 6 m/s 735 mmHg 90%
    19:00 -1°C° 0 mm 6 m/s 736 mmHg 90%
    20:00 0°C° 0 mm 5 m/s 736 mmHg 91%
    21:00 0°C° 0 mm 5 m/s 736 mmHg 91%
    22:00 -1°C° 0 mm 5 m/s 736 mmHg 91%
    23:00 -1°C° 0 mm 5 m/s 736 mmHg 91%

    Après-demain, 18 Janvier, Vendredi

    Heure Température Précipitation Vent Pression Humidité
    00:00 -1°C° 0 mm 5 m/s 736 mmHg 91%
    01:00 -1°C° 0 mm 6 m/s 736 mmHg 91%
    02:00 -1°C° 0 mm 6 m/s 735 mmHg 91%
    03:00 -2°C° 0 mm 6 m/s 735 mmHg 88%
    04:00 -2°C° 0 mm 6 m/s 735 mmHg 86%
    05:00 -2°C° 0 mm 6 m/s 735 mmHg 84%
    06:00 -3°C° 0 mm 6 m/s 736 mmHg 83%
    07:00 -4°C° 0 mm 6 m/s 736 mmHg 82%
    08:00 -4°C° 0 mm 6 m/s 736 mmHg 81%
    09:00 -4°C° 0 mm 7 m/s 736 mmHg 79%
    10:00 -4°C° 0 mm 8 m/s 737 mmHg 77%
    11:00 -4°C° 0 mm 9 m/s 737 mmHg 76%
    12:00 -4°C° 0.1 mm 8 m/s 738 mmHg 74%
    13:00 -4°C° 0.1 mm 8 m/s 739 mmHg 72%
    14:00 -4°C° 0.1 mm 8 m/s 740 mmHg 71%
    15:00 -4°C° 0 mm 7 m/s 741 mmHg 73%
    16:00 -4°C° 0 mm 6 m/s 743 mmHg 75%
    17:00 -5°C° 0 mm 5 m/s 744 mmHg 78%
    18:00 -5°C° 0 mm 5 m/s 745 mmHg 79%
    19:00 -5°C° 0 mm 5 m/s 745 mmHg 80%
    20:00 -5°C° 0 mm 5 m/s 746 mmHg 81%
    21:00 -6°C° 0 mm 5 m/s 746 mmHg 81%
    22:00 -5°C° 0 mm 4 m/s 747 mmHg 82%
    23:00 -5°C° 0 mm 4 m/s 747 mmHg 83%

    19 Janvier, Samedi

    Heure Température Précipitation Vent Pression Humidité
    00:00 -5°C° 0 mm 4 m/s 747 mmHg 84%
    01:00 -5°C° 0 mm 4 m/s 748 mmHg 85%
    02:00 -5°C° 0 mm 4 m/s 748 mmHg 87%
    03:00 -5°C° 0 mm 4 m/s 748 mmHg 87%
    04:00 -6°C° 0 mm 5 m/s 747 mmHg 87%
    05:00 -6°C° 0 mm 5 m/s 747 mmHg 86%
    06:00 -6°C° 0.1 mm 5 m/s 748 mmHg 87%
    07:00 -6°C° 0.1 mm 5 m/s 748 mmHg 88%
    08:00 -5°C° 0.1 mm 4 m/s 748 mmHg 89%
    09:00 -4°C° 0.1 mm 4 m/s 748 mmHg 89%
    10:00 -4°C° 0.1 mm 4 m/s 749 mmHg 89%
    11:00 -4°C° 0.1 mm 3 m/s 749 mmHg 89%
    12:00 -2°C° 0 mm 3 m/s 749 mmHg 88%
    13:00 -2°C° 0 mm 3 m/s 749 mmHg 87%
    14:00 -2°C° 0 mm 3 m/s 749 mmHg 86%
    15:00 -2°C° 0 mm 3 m/s 748 mmHg 87%
    16:00 -2°C° 0 mm 3 m/s 748 mmHg 88%
    17:00 -3°C° 0 mm 2 m/s 748 mmHg 89%
    18:00 -3°C° 0 mm 2 m/s 748 mmHg 90%
    19:00 -3°C° 0 mm 2 m/s 748 mmHg 91%
    20:00 -4°C° 0 mm 2 m/s 748 mmHg 92%
    21:00 -4°C° 0 mm 2 m/s 748 mmHg 91%
    22:00 -4°C° 0 mm 2 m/s 748 mmHg 91%
    23:00 -4°C° 0 mm 2 m/s 748 mmHg 90%

    20 Janvier, Dimanche

    Heure Température Précipitation Vent Pression Humidité
    00:00 -4°C° 0 mm 2 m/s 748 mmHg 90%
    01:00 -4°C° 0 mm 2 m/s 748 mmHg 91%
    02:00 -4°C° 0 mm 2 m/s 748 mmHg 91%
    03:00 -4°C° 0 mm 2 m/s 747 mmHg 92%
    04:00 -4°C° 0 mm 2 m/s 747 mmHg 93%
    05:00 -3°C° 0 mm 1 m/s 747 mmHg 94%
    06:00 -3°C° 0 mm 1 m/s 747 mmHg 94%
    07:00 -2°C° 0 mm 1 m/s 747 mmHg 93%
    08:00 -2°C° 0 mm 1 m/s 747 mmHg 93%
    09:00 -2°C° 0 mm 1 m/s 747 mmHg 92%
    10:00 -2°C° 0 mm 1 m/s 747 mmHg 90%
    11:00 -3°C° 0 mm 2 m/s 747 mmHg 89%
    12:00 -3°C° 0 mm 2 m/s 747 mmHg 87%
    13:00 -3°C° 0 mm 2 m/s 746 mmHg 85%
    14:00 -3°C° 0 mm 2 m/s 746 mmHg 83%
    15:00 -1°C° 0 mm 1 m/s 746 mmHg 86%
    16:00 -2°C° 0 mm 1 m/s 746 mmHg 88%
    17:00 -3°C° 0 mm 1 m/s 745 mmHg 90%
    18:00 -3°C° 0 mm 1 m/s 745 mmHg 91%
    19:00 -3°C° 0 mm 1 m/s 745 mmHg 91%
    20:00 -5°C° 0 mm 2 m/s 745 mmHg 91%
    21:00 -5°C° 0 mm 2 m/s 745 mmHg 91%
    22:00 -6°C° 0 mm 2 m/s 745 mmHg 91%
    23:00 -6°C° 0 mm 2 m/s 745 mmHg 91%

    21 Janvier, Lundi

    Heure Température Précipitation Vent Pression Humidité
    00:00 -7°C° 0 mm 3 m/s 745 mmHg 91%
    01:00 -7°C° 0 mm 3 m/s 745 mmHg 92%
    02:00 -7°C° 0 mm 3 m/s 745 mmHg 92%
    03:00 -6°C° 0.1 mm 3 m/s 745 mmHg 92%
    04:00 -7°C° 0.1 mm 4 m/s 745 mmHg 91%
    05:00 -5°C° 0.1 mm 4 m/s 745 mmHg 90%
    06:00 -7°C° 0 mm 4 m/s 746 mmHg 89%
    07:00 -7°C° 0 mm 3 m/s 746 mmHg 88%
    08:00 -8°C° 0 mm 3 m/s 747 mmHg 87%
    09:00 -7°C° 0 mm 3 m/s 747 mmHg 87%
    10:00 -8°C° 0 mm 4 m/s 748 mmHg 86%
    11:00 -8°C° 0 mm 4 m/s 748 mmHg 85%
    12:00 -7°C° 0 mm 4 m/s 749 mmHg 81%
    13:00 -7°C° 0 mm 5 m/s 749 mmHg 78%
    14:00 -7°C° 0 mm 5 m/s 749 mmHg 74%
    15:00 -7°C° 0 mm 5 m/s 750 mmHg 75%
    16:00 -8°C° 0 mm 5 m/s 750 mmHg 76%
    17:00 -8°C° 0 mm 4 m/s 750 mmHg 77%
    18:00 -8°C° 0 mm 4 m/s 751 mmHg 78%
    19:00 -9°C° 0 mm 4 m/s 751 mmHg 80%
    20:00 -9°C° 0 mm 4 m/s 751 mmHg 81%
    21:00 -10°C° 0 mm 4 m/s 752 mmHg 83%
    22:00 -9°C° 0 mm 3 m/s 752 mmHg 85%
    23:00 -9°C° 0 mm 3 m/s 752 mmHg 87%
    Voir plus